KB2KMM Weather Reports


time (UTC)temp
C
wind
direction
speed
KPH
gust
KPH
rain 1hr
cm
rain 24hr
cm
rain mn
cm
humidity
%
barometer
mb
20260502130505 10 0 0.0 4.8 0.00 0.03 0.03 100 1012.3
20260502123505 10 301 0.0 3.2 0.00 0.03 0.03 100 1012.2
20260502123009 10 293 0.0 4.8 0.00 0.03 0.03 100 1012.2
20260502122505 10 291 0.0 4.8 0.00 0.03 0.03 100 1012.2
20260502122009 10 299 3.2 4.8 0.00 0.03 0.03 100 1012.3
20260502121506 10 295 1.6 4.8 0.00 0.03 0.03 100 1012.3
20260502121008 10 282 3.2 4.8 0.00 0.03 0.03 100 1012.2
20260502120505 10 282 4.8 4.8 0.03 0.03 0.03 100 1012.4
20260502115504 10 213 1.6 4.8 0.03 0.03 0.03 100 1012.2
20260502115009 10 208 0.0 0.0 0.03 0.03 0.03 100 1012.1
20260502114505 10 210 0.0 3.2 0.03 0.03 0.03 100 1012.0
20260502114008 10 215 0.0 4.8 0.03 0.03 0.03 100 1012.0
20260502113505 10 216 1.6 4.8 0.03 0.03 0.03 100 1012.1
20260502113009 10 210 1.6 4.8 0.03 0.03 0.03 100 1012.0
20260502112505 10 194 1.6 3.2 0.03 0.03 0.03 100 1011.7
20260502112009 10 197 0.0 4.8 0.03 0.03 0.03 100 1011.7
20260502111505 10 197 3.2 4.8 0.03 0.03 0.03 100 1011.4
20260502111008 10 277 1.6 3.2 0.03 0.03 0.03 100 1011.7
20260502110505 10 275 0.0 4.8 0.00 0.00 0.00 100 1011.9
20260502110005 10 275 0.0 4.8 0.00 0.00 0.00 100 1011.8
20260502105505 10 274 1.6 4.8 0.00 0.00 0.00 99 1011.9
20260502105008 10 282 3.2 9.7 0.00 0.00 0.00 99 1012.2
20260502104504 10 268 4.8 9.7 0.00 0.00 0.00 99 1012.4
20260502104008 10 288 3.2 9.7 0.00 0.00 0.00 99 1012.0
20260502103505 10 293 3.2 8.0 0.00 0.00 0.00 99 1011.9
20260502103009 10 259 3.2 9.7 0.00 0.00 0.00 99 1011.8
20260502102508 10 293 3.2 9.7 0.00 0.00 0.00 99 1011.9
20260502102008 10 290 3.2 11.3 0.00 0.00 0.00 99 1011.9
20260502101505 10 294 3.2 14.5 0.00 0.00 0.00 99 1012.0
20260502101008 10 306 4.8 14.5 0.00 0.00 0.00 99 1011.9
20260502100505 10 283 6.4 11.3 0.00 0.00 0.00 99 1011.9
20260502091505 9 305 8.0 14.5 0.00 0.00 0.00 100 1011.6
20260502091008 9 297 1.6 12.9 0.00 0.00 0.00 100 1011.7
20260502090505 10 295 1.6 12.9 0.00 0.00 0.00 100 1011.7
20260502071505 9 283 3.2 11.3 0.00 0.03 0.00 100 1012.0
20260502071007 10 282 3.2 9.7 0.00 0.03 0.00 100 1012.1
20260502070505 10 292 4.8 12.9 0.00 0.03 0.00 99 1012.0
20260502070005 10 286 6.4 12.9 0.00 0.03 0.00 99 1012.0
20260502065505 10 279 3.2 14.5 0.00 0.03 0.00 99 1012.1
20260502065009 10 287 4.8 14.5 0.00 0.03 0.00 99 1012.1
20260502064505 10 288 1.6 9.7 0.00 0.03 0.00 99 1012.0
20260502064009 10 327 3.2 14.5 0.00 0.03 0.00 98 1012.1
20260502063505 10 283 1.6 14.5 0.00 0.03 0.00 98 1012.0
20260502063008 10 274 6.4 14.5 0.00 0.03 0.00 98 1012.0
20260502062505 10 294 3.2 11.3 0.00 0.03 0.00 97 1012.3
20260502062008 10 283 4.8 11.3 0.00 0.03 0.00 97 1012.3
20260502061505 10 273 3.2 12.9 0.00 0.03 0.00 96 1012.4
20260502061007 10 284 3.2 12.9 0.00 0.03 0.00 96 1012.5
20260502060505 10 277 4.8 12.9 0.00 0.03 0.00 96 1012.6
20260502060005 10 296 8.0 12.9 0.00 0.03 0.00 96 1012.5
20260502055505 10 294 1.6 9.7 0.00 0.03 0.00 95 1012.5
20260502055009 10 289 3.2 9.7 0.00 0.03 0.00 94 1012.2
20260502054505 10 297 1.6 8.0 0.00 0.03 0.00 94 1012.2
20260502054009 10 281 1.6 8.0 0.00 0.03 0.00 93 1012.2
20260502053505 10 276 3.2 8.0 0.00 0.03 0.00 93 1012.1
20260502053008 10 290 1.6 4.8 0.00 0.03 0.00 92 1012.1
20260502052505 10 301 1.6 4.8 0.00 0.03 0.00 91 1012.0
20260502052008 10 265 1.6 8.0 0.00 0.03 0.00 91 1012.1
20260502051505 10 284 3.2 8.0 0.00 0.03 0.00 89 1012.2
20260502051008 10 290 3.2 8.0 0.00 0.03 0.00 89 1012.4
20260502050505 10 295 1.6 4.8 0.00 0.03 0.00 87 1012.4
20260502050005 10 295 1.6 4.8 0.00 0.03 0.00 87 1012.4
20260502045505 10 293 0.0 4.8 0.00 0.03 0.00 86 1012.4
20260502045008 10 295 1.6 8.0 0.00 0.03 0.00 86 1012.4
20260502044505 10 299 3.2 8.0 0.00 0.03 0.00 86 1012.4
20260502044009 10 272 3.2 9.7 0.00 0.03 0.00 86 1012.4
20260502043505 10 295 1.6 9.7 0.00 0.03 0.00 85 1012.5
20260502043009 10 295 3.2 8.0 0.00 0.03 0.00 85 1012.6
20260502042505 10 286 1.6 4.8 0.00 0.03 0.00 84 1012.6
20260502042008 10 290 3.2 11.3 0.00 0.03 0.00 85 1012.6
20260502041505 10 286 3.2 11.3 0.00 0.03 0.00 84 1012.6
20260502041009 10 279 4.8 11.3 0.00 0.03 0.00 85 1012.4
20260502040505 10 299 4.8 11.3 0.00 0.03 0.00 85 1012.5
20260502040005 10 295 3.2 8.0 0.00 0.03 0.00 85 1012.6
20260502035506 10 304 1.6 9.7 0.00 0.03 0.03 85 1012.5
20260502035008 10 320 1.6 9.7 0.00 0.03 0.03 85 1012.4
20260502034505 10 283 0.0 4.8 0.00 0.03 0.03 85 1012.4
20260502034008 10 283 1.6 11.3 0.00 0.03 0.03 85 1012.5
20260502033505 10 284 0.0 11.3 0.00 0.03 0.03 85 1012.5
20260502033009 10 306 3.2 11.3 0.00 0.03 0.03 85 1012.5
20260502032505 10 309 3.2 14.5 0.00 0.03 0.03 85 1012.6
20260502032008 10 302 4.8 14.5 0.00 0.03 0.03 86 1012.6
20260502031505 10 305 4.8 11.3 0.00 0.03 0.03 86 1012.7
20260502031008 10 291 1.6 11.3 0.00 0.03 0.03 85 1012.7
20260502030505 10 302 1.6 9.7 0.00 0.03 0.03 84 1012.8
20260502030005 10 298 3.2 9.7 0.00 0.03 0.03 84 1013.0
20260502025505 10 314 3.2 9.7 0.00 0.03 0.03 83 1013.0
20260502025009 10 321 3.2 11.3 0.00 0.03 0.03 83 1013.0
20260502024505 10 310 3.2 12.9 0.00 0.03 0.03 82 1012.9
20260502024009 10 321 4.8 12.9 0.00 0.03 0.03 82 1012.9
20260502023505 10 311 1.6 12.9 0.00 0.03 0.03 82 1012.8
20260502023009 10 312 4.8 12.9 0.00 0.03 0.03 81 1012.9
20260502022505 10 310 6.4 11.3 0.00 0.03 0.03 80 1012.9
20260502022009 10 324 1.6 11.3 0.00 0.03 0.03 79 1012.9
20260502021505 10 325 3.2 11.3 0.00 0.03 0.03 79 1013.0
20260502021007 10 316 1.6 8.0 0.00 0.03 0.03 78 1012.9
20260502020504 10 322 3.2 8.0 0.00 0.03 0.03 78 1012.9
20260502020005 10 318 1.6 8.0 0.00 0.03 0.03 78 1012.8
20260502015505 10 320 3.2 11.3 0.00 0.03 0.03 78 1012.9
20260502015008 10 320 3.2 11.3 0.00 0.03 0.03 76 1012.9
20260502014505 10 321 4.8 19.3 0.00 0.03 0.03 75 1012.8
20260502014010 10 311 4.8 19.3 0.00 0.03 0.03 75 1012.7
20260502013505 10 317 3.2 12.9 0.00 0.03 0.03 74 1012.7
20260502013009 10 301 1.6 12.9 0.00 0.03 0.03 73 1012.6
20260502012505 10 309 3.2 8.0 0.00 0.03 0.03 72 1012.6
20260502012010 10 309 3.2 8.0 0.00 0.03 0.03 72 1012.6
20260502011505 10 296 1.6 14.5 0.00 0.03 0.03 71 1012.5
20260502011007 10 313 6.4 14.5 0.00 0.03 0.03 71 1012.4
20260502010505 10 315 6.4 12.9 0.00 0.03 0.03 71 1012.4
20260502010005 10 312 3.2 12.9 0.00 0.03 0.03 72 1012.4
20260502005505 10 299 3.2 8.0 0.00 0.03 0.03 72 1012.4
20260502005008 10 341 1.6 8.0 0.00 0.03 0.03 72 1012.3
20260502004505 10 344 1.6 8.0 0.00 0.03 0.03 71 1012.4
20260502004009 10 340 1.6 8.0 0.00 0.03 0.03 71 1012.5
20260502003505 10 313 1.6 8.0 0.00 0.03 0.03 71 1012.4
20260502003009 10 314 3.2 9.7 0.00 0.03 0.03 70 1012.4
20260502002505 10 325 3.2 11.3 0.00 0.03 0.03 70 1012.2
20260502002008 11 317 3.2 11.3 0.00 0.03 0.03 70 1012.1
20260502001504 11 330 3.2 8.0 0.00 0.03 0.03 69 1012.0
20260502001008 11 325 3.2 8.0 0.00 0.03 0.03 69 1012.1
20260502000505 11 315 3.2 8.0 0.00 0.03 0.03 68 1012.1
20260502000005 11 315 3.2 9.7 0.00 0.03 0.03 66 1012.0
20260501235505 11 332 0.0 9.7 0.00 0.03 0.03 65 1012.0
20260501235008 11 328 4.8 9.7 0.00 0.03 0.03 64 1011.9
20260501234505 11 338 3.2 9.7 0.00 0.03 0.03 63 1012.0
20260501234009 11 312 3.2 14.5 0.00 0.03 0.03 61 1011.9
20260501233504 11 347 4.8 14.5 0.00 0.03 0.03 60 1011.8
20260501233008 11 349 4.8 11.3 0.00 0.03 0.03 59 1011.7
20260501232505 11 355 1.6 19.3 0.00 0.03 0.03 56 1011.7
20260501232008 12 351 8.0 19.3 0.00 0.03 0.03 55 1011.6
20260501231505 12 347 8.0 19.3 0.00 0.03 0.03 53 1011.6
20260501231009 12 358 6.4 16.1 0.00 0.03 0.03 52 1011.7
20260501230505 12 0 3.2 19.3 0.00 0.03 0.03 51 1011.6
20260501230005 13 0 9.7 19.3 0.00 0.03 0.03 49 1011.6
20260501225505 13 0 6.4 25.7 0.00 0.03 0.03 47 1011.5
20260501225008 13 0 9.7 25.7 0.00 0.03 0.03 44 1011.6
20260501224505 13 339 8.0 19.3 0.00 0.03 0.03 45 1011.6
20260501224008 13 345 3.2 19.3 0.00 0.03 0.03 46 1011.6
20260501223505 13 346 3.2 19.3 0.00 0.03 0.03 46 1011.6
20260501223009 13 339 6.4 19.3 0.00 0.03 0.03 44 1011.7
20260501222505 13 340 8.0 27.4 0.00 0.03 0.03 43 1011.6
20260501222017 13 350 9.7 27.4 0.00 0.03 0.03 42 1011.7
20260501221505 13 339 11.3 20.9 0.00 0.03 0.03 41 1011.7
20260501221010 14 232 8.0 19.3 0.00 0.03 0.03 40 1011.6
20260501220504 14 224 6.4 29.0 0.00 0.03 0.03 39 1011.7
20260501220005 15 243 9.7 29.0 0.00 0.03 0.03 36 1011.7
20260501215504 15 257 4.8 19.3 0.00 0.08 0.03 35 1011.6
20260501215009 15 237 8.0 22.5 0.00 0.08 0.03 34 1011.5
20260501214505 15 332 8.0 22.5 0.00 0.08 0.03 33 1011.5
20260501214009 15 336 8.0 24.1 0.00 0.08 0.03 33 1011.4
20260501213505 15 230 11.3 24.1 0.00 0.08 0.03 30 1011.5
20260501213010 15 352 9.7 25.7 0.00 0.08 0.03 31 1011.5
20260501212505 15 232 11.3 25.7 0.00 0.08 0.03 27 1011.5
20260501212009 15 220 11.3 20.9 0.00 0.08 0.03 27 1011.4
20260501211505 15 333 8.0 22.5 0.00 0.08 0.03 25 1011.3
20260501211009 16 234 9.7 22.5 0.00 0.08 0.03 24 1011.3
20260501210505 16 358 4.8 24.1 0.00 0.08 0.03 24 1011.2
20260501210005 16 225 12.9 24.1 0.00 0.08 0.03 22 1011.2
20260501205505 16 201 9.7 20.9 0.00 0.08 0.03 24 1011.2
20260501205009 17 263 9.7 22.5 0.00 0.08 0.03 21 1011.1
20260501204505 17 247 11.3 22.5 0.00 0.08 0.03 21 1011.1
20260501204009 17 191 4.8 20.9 0.00 0.08 0.03 22 1011.0
20260501203505 17 207 4.8 19.3 0.00 0.08 0.03 20 1011.0
20260501203009 17 184 4.8 22.5 0.00 0.08 0.03 22 1011.0
20260501202504 17 217 8.0 22.5 0.00 0.08 0.03 18 1010.8
20260501202009 17 240 11.3 22.5 0.00 0.08 0.03 14 1010.9
20260501201505 18 264 8.0 24.1 0.00 0.08 0.03 12 1010.8
20260501201009 18 232 8.0 24.1 0.00 0.08 0.03 12 1010.8
20260501200505 18 244 8.0 24.1 0.00 0.08 0.03 14 1010.7
20260501200005 18 182 4.8 20.9 0.00 0.08 0.03 17 1010.7
20260501195505 18 200 8.0 20.9 0.00 0.08 0.03 11 1010.7
20260501195009 18 249 8.0 20.9 0.00 0.08 0.03 9 1010.7
20260501194505 18 142 8.0 20.9 0.00 0.08 0.03 12 1010.7
20260501194009 18 244 8.0 20.9 0.00 0.08 0.03 10 1010.9
20260501193505 18 227 11.3 20.9 0.00 0.08 0.03 9 1011.0
20260501193009 18 256 9.7 19.3 0.00 0.08 0.03 8 1011.0
20260501192505 18 236 8.0 16.1 0.00 0.08 0.03 8 1011.0
20260501192009 19 285 8.0 14.5 0.00 0.08 0.03 8 1011.0
20260501191505 19 270 3.2 19.3 0.00 0.08 0.03 10 1011.1
20260501191009 18 41 11.3 19.3 0.00 0.08 0.03 16 1011.2
20260501190505 18 222 1.6 19.3 0.00 0.08 0.03 17 1011.3
20260501190005 17 227 4.8 19.3 0.00 0.08 0.03 15 1011.5
20260501185505 17 218 6.4 19.3 0.00 0.08 0.03 18 1011.3
20260501185009 17 282 3.2 24.1 0.00 0.08 0.03 16 1011.4
20260501184505 17 284 4.8 24.1 0.00 0.08 0.03 16 1011.5
20260501184009 18 292 8.0 22.5 0.00 0.08 0.03 12 1011.6
20260501183505 18 248 8.0 14.5 0.00 0.08 0.03 6 1011.5
20260501183009 18 264 4.8 19.3 0.00 0.08 0.03 4 1011.5
20260501182505 18 358 8.0 19.3 0.00 0.08 0.03 8 1011.6
20260501182009 17 243 8.0 22.5 0.00 0.08 0.03 4 1011.6
20260501181505 17 308 6.4 22.5 0.00 0.08 0.03 5 1011.6
20260501181009 17 343 4.8 22.5 0.00 0.08 0.03 7 1011.5
20260501180505 17 273 8.0 12.9 0.00 0.08 0.03 4 1011.6
20260501180005 17 259 3.2 12.9 0.00 0.08 0.03 7 1011.6
20260501175505 17 347 8.0 12.9 0.00 0.08 0.03 10 1011.7
20260501175010 16 12 4.8 20.9 0.00 0.08 0.03 9 1011.7
20260501174008 16 240 9.7 20.9 0.00 0.08 0.03 7 1011.7
20260501173505 16 241 9.7 16.1 0.00 0.08 0.03 8 1011.8
20260501173009 16 305 6.4 12.9 0.00 0.08 0.03 17 1011.8
20260501172505 16 346 8.0 12.9 0.00 0.08 0.03 15 1011.9
20260501172008 16 287 6.4 14.5 0.00 0.08 0.03 12 1011.8
20260501171504 15 340 3.2 16.1 0.00 0.08 0.03 14 1011.9
20260501171010 15 309 6.4 16.1 0.00 0.08 0.03 15 1011.9
20260501170504 15 253 1.6 19.3 0.00 0.08 0.03 16 1012.0
20260501170005 15 326 8.0 19.3 0.00 0.08 0.03 15 1012.0
20260501165505 15 0 4.8 19.3 0.00 0.08 0.03 18 1012.0
20260501165009 14 0 4.8 16.1 0.00 0.08 0.03 17 1012.1
20260501164505 14 341 4.8 16.1 0.00 0.08 0.03 19 1012.1
20260501164008 14 296 4.8 16.1 0.00 0.08 0.03 18 1012.1
20260501163505 14 292 3.2 16.1 0.00 0.08 0.03 18 1012.2
20260501163009 13 279 8.0 16.1 0.00 0.08 0.03 20 1012.3
20260501162505 13 9 3.2 9.7 0.00 0.08 0.03 23 1012.3
20260501162009 13 310 3.2 12.9 0.00 0.08 0.03 22 1012.4
20260501161505 13 337 6.4 16.1 0.00 0.08 0.03 24 1012.5
20260501161009 13 337 8.0 16.1 0.00 0.08 0.03 24 1012.6
20260501160505 13 0 3.2 14.5 0.00 0.08 0.03 24 1012.7
20260501160005 13 339 4.8 16.1 0.00 0.08 0.03 24 1012.7
20260501155505 13 287 11.3 16.1 0.00 0.08 0.03 24 1012.7
20260501155009 13 282 8.0 14.5 0.00 0.08 0.03 24 1012.7
20260501154505 13 311 3.2 19.3 0.00 0.08 0.03 29 1012.9
20260501154009 13 346 4.8 19.3 0.00 0.08 0.03 32 1012.9
20260501153505 12 6 6.4 19.3 0.00 0.08 0.03 34 1012.9
20260501153008 12 352 4.8 14.5 0.00 0.08 0.03 33 1012.9
20260501152504 12 259 8.0 16.1 0.00 0.08 0.03 31 1012.9
20260501152009 12 266 8.0 16.1 0.00 0.08 0.03 33 1013.0
20260501151505 12 12 6.4 16.1 0.00 0.10 0.03 35 1013.0
20260501151009 12 268 6.4 19.3 0.00 0.10 0.03 33 1013.0
20260501150506 12 263 8.0 19.3 0.00 0.10 0.03 34 1012.8
20260501150005 12 304 4.8 11.3 0.00 0.10 0.03 36 1012.7
20260501145505 12 346 4.8 14.5 0.00 0.10 0.03 36 1012.6
20260501145009 12 335 4.8 19.3 0.00 0.10 0.03 37 1012.7
20260501144505 11 288 6.4 19.3 0.00 0.10 0.03 35 1012.8
20260501144010 11 283 3.2 19.3 0.00 0.10 0.03 36 1012.7
20260501143505 11 289 3.2 19.3 0.00 0.10 0.03 34 1012.7
20260501143009 12 296 11.3 19.3 0.00 0.10 0.03 36 1012.9
20260501142505 12 317 3.2 12.9 0.00 0.10 0.03 39 1012.8
20260501142009 12 327 4.8 12.9 0.00 0.10 0.03 41 1012.9